| time (UTC) | temp F | wind direction | speed MPH | gust MPH | rain 1hr in | rain 24hr in | rain mn in | humidity % | barometer mb |
| 20260506090012 | 72 | 5 | 6.0 | 13.0 | 0.00 | 0.00 | 0.00 | 37 | 1008.1 |
| 20260506084510 | 71 | 347 | 3.0 | 11.0 | 0.00 | 0.00 | 0.00 | 40 | 1008.0 |
| 20260506083010 | 72 | 343 | 4.0 | 13.0 | 0.00 | 0.00 | 0.00 | 38 | 1008.0 |
| 20260506081506 | 72 | 45 | 1.0 | 11.0 | 0.00 | 0.00 | 0.00 | 39 | 1008.0 |
| 20260506073100 | 69 | 19 | 5.0 | 14.0 | 0.00 | 0.00 | 0.00 | 39 | 1007.8 |
| 20260506071559 | 69 | 355 | 3.0 | 10.0 | 0.00 | 0.00 | 0.00 | 40 | 1007.7 |
| 20260506070124 | 69 | 77 | 4.0 | 12.0 | 0.00 | 0.00 | 0.00 | 41 | 1007.7 |
| 20260506061548 | 67 | 355 | 3.0 | 9.0 | 0.00 | 0.00 | 0.00 | 44 | 1008.0 |
| 20260506044523 | 60 | 76 | 3.0 | 13.0 | 0.00 | 0.00 | 0.00 | 57 | 1007.8 |
| 20260506043019 | 58 | 59 | 0.0 | 5.0 | 0.00 | 0.00 | 0.00 | 59 | 1007.7 |
| 20260506041516 | 57 | 9 | 0.0 | 6.0 | 0.00 | 0.00 | 0.00 | 61 | 1007.6 |
| 20260506040016 | 57 | 24 | 0.0 | 5.0 | 0.00 | 0.00 | 0.00 | 60 | 1007.6 |
| 20260506034511 | 57 | 39 | 0.0 | 0.0 | 0.00 | 0.00 | 0.00 | 59 | 1007.6 |
| 20260506033014 | 57 | 43 | 0.0 | 3.0 | 0.00 | 0.00 | 0.00 | 58 | 1007.5 |
| 20260506031507 | 58 | 5 | 0.0 | 3.0 | 0.00 | 0.00 | 0.00 | 57 | 1007.4 |
| 20260506030006 | 58 | 355 | 0.0 | 4.0 | 0.00 | 0.00 | 0.00 | 56 | 1007.6 |
| 20260506024513 | 58 | 65 | 0.0 | 5.0 | 0.00 | 0.00 | 0.00 | 56 | 1007.6 |
| 20260506023003 | 59 | 92 | 3.0 | 9.0 | 0.00 | 0.00 | 0.00 | 55 | 1007.6 |
| 20260506021504 | 59 | 80 | 2.0 | 8.0 | 0.00 | 0.00 | 0.00 | 56 | 1007.6 |
| 20260506020001 | 59 | 70 | 0.0 | 6.0 | 0.00 | 0.00 | 0.00 | 55 | 1007.4 |
| 20260506014613 | 59 | 80 | 1.0 | 8.0 | 0.00 | 0.00 | 0.00 | 55 | 1007.3 |
| 20260506013059 | 59 | 69 | 1.0 | 10.0 | 0.00 | 0.00 | 0.00 | 55 | 1007.2 |
| 20260506011623 | 59 | 73 | 1.0 | 16.0 | 0.00 | 0.00 | 0.00 | 55 | 1007.1 |
| 20260506010056 | 59 | 76 | 2.0 | 12.0 | 0.00 | 0.00 | 0.00 | 55 | 1007.0 |
| 20260506004604 | 59 | 69 | 3.0 | 15.0 | 0.00 | 0.00 | 0.00 | 55 | 1007.2 |
| 20260506003055 | 59 | 25 | 4.0 | 12.0 | 0.00 | 0.00 | 0.00 | 55 | 1007.2 |
| 20260506001556 | 59 | 360 | 1.0 | 6.0 | 0.00 | 0.00 | 0.00 | 56 | 1007.1 |
| 20260506000117 | 59 | 12 | 2.0 | 9.0 | 0.00 | 0.00 | 0.00 | 55 | 1007.0 |
| 20260505234555 | 59 | 79 | 0.0 | 11.0 | 0.00 | 0.00 | 0.00 | 55 | 1007.1 |
| 20260505233057 | 59 | 5 | 0.0 | 8.0 | 0.00 | 0.00 | 0.00 | 56 | 1007.3 |
| 20260505231601 | 59 | 5 | 3.0 | 9.0 | 0.00 | 0.00 | 0.00 | 56 | 1007.2 |
| 20260505230104 | 59 | 73 | 0.0 | 8.0 | 0.00 | 0.00 | 0.00 | 56 | 1007.2 |
| 20260505224549 | 59 | 14 | 1.0 | 15.0 | 0.00 | 0.00 | 0.00 | 57 | 1007.1 |
| 20260505223048 | 59 | 64 | 2.0 | 9.0 | 0.00 | 0.00 | 0.00 | 57 | 1007.1 |
| 20260505221555 | 59 | 19 | 2.0 | 8.0 | 0.00 | 0.00 | 0.00 | 58 | 1007.2 |
| 20260505220044 | 59 | 360 | 1.0 | 10.0 | 0.00 | 0.00 | 0.00 | 57 | 1007.3 |
| 20260505214543 | 59 | 12 | 1.0 | 10.0 | 0.00 | 0.00 | 0.00 | 57 | 1007.3 |
| 20260505213042 | 59 | 34 | 6.0 | 14.0 | 0.00 | 0.00 | 0.00 | 58 | 1007.3 |
| 20260505211541 | 59 | 111 | 4.0 | 9.0 | 0.00 | 0.00 | 0.00 | 58 | 1007.6 |
| 20260505210040 | 59 | 63 | 3.0 | 13.0 | 0.00 | 0.00 | 0.00 | 57 | 1007.9 |
| 20260505204547 | 59 | 48 | 3.0 | 13.0 | 0.00 | 0.00 | 0.00 | 58 | 1007.7 |
| 20260505203052 | 59 | 117 | 4.0 | 13.0 | 0.00 | 0.00 | 0.00 | 57 | 1007.6 |
| 20260505201540 | 59 | 322 | 2.0 | 13.0 | 0.00 | 0.00 | 0.00 | 57 | 1007.8 |
| 20260505200038 | 59 | 305 | 1.0 | 5.0 | 0.00 | 0.00 | 0.00 | 56 | 1007.8 |
| 20260505194550 | 59 | 23 | 0.0 | 6.0 | 0.00 | 0.00 | 0.00 | 56 | 1007.7 |
| 20260505193038 | 60 | 5 | 1.0 | 12.0 | 0.00 | 0.00 | 0.00 | 55 | 1007.7 |
| 20260505191547 | 60 | 44 | 3.0 | 9.0 | 0.00 | 0.00 | 0.00 | 55 | 1007.7 |
| 20260505190039 | 60 | 5 | 3.0 | 13.0 | 0.00 | 0.00 | 0.00 | 54 | 1007.6 |
| 20260505184537 | 61 | 341 | 4.0 | 13.0 | 0.00 | 0.00 | 0.00 | 52 | 1007.5 |
| 20260505183034 | 61 | 338 | 2.0 | 12.0 | 0.00 | 0.00 | 0.00 | 52 | 1007.6 |
| 20260505181537 | 61 | 18 | 2.0 | 10.0 | 0.00 | 0.00 | 0.00 | 51 | 1007.6 |
| 20260505180043 | 61 | 355 | 2.0 | 10.0 | 0.00 | 0.00 | 0.00 | 51 | 1007.5 |
| 20260505174532 | 62 | 55 | 2.0 | 8.0 | 0.00 | 0.00 | 0.00 | 50 | 1007.7 |
| 20260505173029 | 62 | 67 | 3.0 | 11.0 | 0.00 | 0.00 | 0.00 | 48 | 1007.8 |
| 20260505171527 | 63 | 15 | 2.0 | 11.0 | 0.00 | 0.00 | 0.00 | 46 | 1008.0 |
| 20260505170026 | 64 | 360 | 4.0 | 10.0 | 0.00 | 0.00 | 0.00 | 44 | 1007.9 |
| 20260505164526 | 65 | 313 | 5.0 | 14.0 | 0.00 | 0.00 | 0.00 | 42 | 1007.9 |
| 20260505163025 | 65 | 70 | 3.0 | 12.0 | 0.00 | 0.00 | 0.00 | 43 | 1008.0 |
| 20260505161526 | 66 | 355 | 2.0 | 8.0 | 0.00 | 0.00 | 0.00 | 43 | 1008.2 |
| 20260505153022 | 65 | 15 | 3.0 | 14.0 | 0.00 | 0.00 | 0.00 | 42 | 1008.5 |
| 20260505151521 | 66 | 51 | 4.0 | 15.0 | 0.00 | 0.00 | 0.00 | 41 | 1008.4 |
| 20260505124517 | 68 | 67 | 2.0 | 15.0 | 0.00 | 0.00 | 0.00 | 37 | 1008.5 |
| 20260505123014 | 70 | 36 | 5.0 | 14.0 | 0.00 | 0.00 | 0.00 | 35 | 1008.7 |
| 20260505121525 | 71 | 39 | 9.0 | 15.0 | 0.00 | 0.00 | 0.00 | 34 | 1008.6 |
| 20260505120012 | 72 | 306 | 7.0 | 16.0 | 0.00 | 0.00 | 0.00 | 32 | 1008.5 |
| 20260505114512 | 73 | 5 | 9.0 | 18.0 | 0.00 | 0.00 | 0.00 | 29 | 1008.4 |
| 20260505113012 | 75 | 328 | 6.0 | 22.0 | 0.00 | 0.00 | 0.00 | 28 | 1008.3 |
| 20260505111510 | 76 | 339 | 6.0 | 17.0 | 0.00 | 0.00 | 0.00 | 25 | 1008.2 |
| 20260505101505 | 76 | 51 | 6.0 | 11.0 | 0.00 | 0.00 | 0.00 | 27 | 1008.1 |
| 20260505100011 | 75 | 74 | 2.0 | 10.0 | 0.00 | 0.00 | 0.00 | 31 | 1008.3 |
| 20260505094507 | 75 | 51 | 6.0 | 12.0 | 0.00 | 0.00 | 0.00 | 28 | 1008.4 |
| 20260505093001 | 75 | 84 | 3.0 | 13.0 | 0.00 | 0.00 | 0.00 | 27 | 1008.4 |
| 20260505091618 | 76 | 85 | 2.0 | 10.0 | 0.00 | 0.00 | 0.00 | 26 | 1008.4 |